[[{"header":{"parameterUnit":"m.s-1","parameterCategory":1,"la1":30.2991,"la2":30.254,"lo1":-89.0895,"lo2":-89.0444,"dx":0.0017,"dy":0.0017,"nx":28,"ny":28,"refTime":"2022-12-09T15:00:00:Z","depth":0,"parameterNumber":2,"parameterNumberName":"U-component_of_WINDS"},"data":[0,0,0,0,0,0,0,0,0,0,0,0,0,0,0,0,0,0,0,0,0,0,0,0,0,0,0,0,0,0,0,0,0,0,0,0,0,0,0,0,0,0,0,0,0,0,0,0,0,0,0,0,0,0,0,0,0,0,0.1648,0.1648,0,0.1585,0.1584,0.1583,0.1515,0.1514,0.1513,0.1512,0.1444,0.1443,0.1442,0,0,0,0,0,0,0,0,0,0,0,0,0,0.1708,0.1708,0.1648,0.1648,0.1647,0.1585,0.1584,0.1583,0.1515,0.1514,0.1513,0.1512,0.1444,0.1443,0.1442,0,0,0,0,0,0,0,0,0,0,0,0,0,0.1667,0.1707,0.1649,0.1606,0.1601,0.1585,0.1584,0.1583,0.1515,0.1514,0.1513,0.1511,0.1445,0.1443,0.1442,0.1462,0,0,0.1438,0.1437,0,0,0,0,0,0,0,0,0.167,0.1665,0.1613,0.1609,0.1603,0.1556,0.158,0.1542,0.1516,0.1548,0.1512,0.151,0.1482,0.1478,0.1469,0.1459,0.1456,0.1437,0.1437,0.1436,0.1436,0,0,0,0,0,0,0,0.1673,0.1668,0.1623,0.1612,0.1606,0.1589,0.1581,0.1573,0.1524,0.1545,0.154,0.1533,0.1479,0.147,0.1467,0.1455,0.1438,0.1436,0.1435,0.1435,0.1458,0.146,0,0,0,0,0,0,0.1682,0.167,0.1625,0.1621,0.1634,0.1589,0.158,0.1573,0.1524,0.1515,0.1535,0.153,0.1473,0.1468,0.1464,0.1485,0.1436,0.1435,0.1434,0.1457,0.1459,0.146,0,0,0,0,0,0,0.1684,0.1679,0.1628,0.1644,0.1637,0.1589,0.1581,0.1572,0.1563,0.1516,0.1507,0.1535,0.1472,0.1466,0.1463,0.1481,0.1434,0.1433,0.1455,0.1458,0.146,0.1527,0,0,0,0,0,0,0.1686,0.168,0.1688,0.1645,0.1636,0.1629,0.1582,0.1572,0.1561,0.1555,0.1513,0.1505,0.147,0.1466,0.1462,0.1479,0.1432,0.1453,0.1456,0.1459,0.1523,0.1531,0.1538,0,0,0,0,0,0.1688,0.1709,0.1689,0.1684,0.1645,0.163,0.1625,0.1586,0.1563,0.157,0.154,0.1506,0.148,0.1466,0.1461,0.1478,0.1452,0.1456,0.1459,0.1519,0.1529,0.1538,0,0,0,0,0,0,0.1754,0.1702,0.168,0.1687,0.1664,0.1619,0.1627,0.1598,0.158,0.1574,0.1525,0.1516,0.152,0.1498,0.1484,0.1495,0.1461,0.1464,0.1509,0.1518,0.1526,0.1531,0.1431,0,0,0,0,0,0.1769,0.1763,0.1717,0.1728,0.1718,0.1675,0.1667,0.1639,0.1612,0.1602,0.1571,0.1546,0.1532,0.1524,0.1508,0.1519,0.1509,0.1528,0.1536,0.1542,0.1545,0.1549,0.1557,0.1471,0.1471,0.1471,0,0,0.18,0.1772,0.177,0.1741,0.1719,0.1713,0.1667,0.1662,0.1656,0.16,0.1597,0.1573,0.1542,0.1546,0.1547,0.1529,0.1566,0.1546,0.1552,0.1551,0.1553,0.1561,0.1569,0.1473,0.1473,0.1473,0,0,0.1855,0.1832,0.1839,0.1819,0.1788,0.1759,0.1761,0.172,0.1703,0.1699,0.1657,0.1649,0.1626,0.1605,0.1592,0.1639,0.1607,0.1635,0.1675,0.168,0.1687,0.1692,0.1709,0.1716,0.1638,0.1638,0.1638,0,0.1897,0.1887,0.1846,0.1844,0.1832,0.1782,0.1788,0.177,0.1735,0.1728,0.1708,0.1679,0.1654,0.1653,0.1665,0.1655,0.1655,0.164,0.1689,0.1694,0.1699,0.1715,0.1721,0.1642,0.1641,0.1641,0.1641,0,0.1941,0.1934,0.1943,0.1912,0.1901,0.1903,0.1861,0.1855,0.1828,0.1801,0.1797,0.1766,0.1743,0.1741,0.1713,0.1736,0.1726,0.1698,0.1664,0.1712,0.1726,0.1731,0.1647,0.1646,0.1644,0.1644,0,0,0.2034,0.1981,0.1985,0.197,0.1932,0.1926,0.1926,0.1905,0.19,0.1878,0.1876,0.1858,0.1833,0.1817,0.1787,0.1792,0.1831,0.1763,0.1762,0.1777,0.1854,0.1875,0.1882,0.181,0.1811,0.1811,0.1856,0,0.2082,0.2079,0.2042,0.2049,0.2043,0.1996,0.1995,0.1972,0.1947,0.1936,0.1908,0.1896,0.1864,0.1854,0.1856,0.1826,0.1846,0.1822,0.1807,0.1807,0.1817,0.1889,0.1911,0.1955,0.1861,0.1862,0.1863,0,0.2137,0.2119,0.2126,0.2089,0.2085,0.2085,0.2063,0.2054,0.2026,0.2008,0.1991,0.1958,0.1954,0.1921,0.1915,0.19,0.1891,0.1875,0.1876,0.1873,0.1838,0.1889,0.1968,0.1975,0.1871,0.187,0.187,0,0.2204,0.2182,0.2184,0.2173,0.2129,0.213,0.2112,0.2083,0.2073,0.2053,0.2046,0.2026,0.2015,0.2,0.1961,0.1941,0.1959,0.1923,0.1943,0.1944,0.1949,0.1949,0.2029,0.1944,0.1943,0.1943,0.1943,0,0.2261,0.2267,0.2214,0.2215,0.222,0.2177,0.2184,0.216,0.2135,0.213,0.2088,0.2084,0.2033,0.2024,0.1993,0.1993,0.1988,0.1972,0.1964,0.1976,0.1978,0.197,0.1966,0.1945,0.1945,0.1944,0.1944,0,0.2337,0.2302,0.23,0.226,0.2249,0.2255,0.222,0.2219,0.2191,0.2186,0.2182,0.2138,0.2124,0.2085,0.206,0.204,0.2048,0.2033,0.2058,0.2053,0.2075,0.2074,0.2152,0.216,0.207,0.2071,0.2072,0,0.2376,0.238,0.234,0.2335,0.2319,0.231,0.23,0.2257,0.2248,0.2217,0.222,0.2203,0.2187,0.2168,0.2133,0.2114,0.2098,0.2127,0.2095,0.2107,0.2099,0.2099,0.2099,0.2134,0.2135,0.2136,0.2137,0,0.2449,0.2431,0.2419,0.2401,0.239,0.2374,0.2354,0.2352,0.2304,0.2296,0.2283,0.2271,0.2247,0.223,0.2206,0.2186,0.2154,0.2148,0.2151,0.2163,0.2178,0.2171,0.2078,0.2146,0.2145,0.2144,0.2144,0.2143,0.2507,0.2509,0.2482,0.2469,0.2451,0.2434,0.2431,0.2404,0.2392,0.237,0.2346,0.2335,0.2306,0.2271,0.2253,0.2243,0.2226,0.2231,0.2232,0.2234,0.224,0.218,0.2239,0.2238,0.2238,0.2238,0.2238,0,0.2578,0.2558,0.2548,0.2523,0.2513,0.2485,0.2462,0.2456,0.2447,0.2424,0.241,0.2394,0.2378,0.2343,0.2324,0.2323,0.2307,0.2319,0.2319,0.2315,0.2257,0.2256,0.2332,0.2332,0.2332,0.2332,0.2332,0.2332,0.2613,0.2615,0.2594,0.2586,0.2565,0.2555,0.2545,0.2529,0.2511,0.2495,0.2483,0.246,0.2432,0.2411,0.2394,0.2384,0.2379,0.2396,0.2381,0.2327,0.2319,0.231,0.2309,0.2395,0.2395,0.244,0.244,0.244]},{"header":{"parameterUnit":"m.s-1","parameterCategory":1,"la1":30.2991,"la2":30.254,"lo1":-89.0895,"lo2":-89.0444,"dx":0.0017,"dy":0.0017,"nx":28,"ny":28,"refTime":"2022-12-09T15:00:00:Z","depth":0,"parameterNumber":3,"parameterNumberName":"V-component_of_WINDS"},"data":[0,0,0,0,0,0,0,0,0,0,0,0,0,0,0,0,0,0,0,0,0,0,0,0,0,0,0,0,0,0,0,0,0,0,0,0,0,0,0,0,0,0,0,0,0,0,0,0,0,0,0,0,0,0,0,0,0,0,-0.9483,-0.9483,0,-0.9474,-0.9474,-0.9474,-0.9464,-0.9464,-0.9464,-0.9463,-0.9452,-0.9451,-0.9451,0,0,0,0,0,0,0,0,0,0,0,0,0,-0.9492,-0.9492,-0.9483,-0.9483,-0.9483,-0.9474,-0.9474,-0.9474,-0.9464,-0.9464,-0.9464,-0.9463,-0.9452,-0.9451,-0.9451,0,0,0,0,0,0,0,0,0,0,0,0,0,-0.9486,-0.9492,-0.9483,-0.9477,-0.9477,-0.9474,-0.9474,-0.9474,-0.9464,-0.9464,-0.9464,-0.9463,-0.9452,-0.9452,-0.9451,-0.9453,0,0,-0.945,-0.945,0,0,0,0,0,0,0,0,-0.9486,-0.9486,-0.9478,-0.9478,-0.9477,-0.947,-0.9472,-0.9467,-0.9464,-0.9469,-0.9463,-0.9463,-0.9458,-0.9457,-0.9455,-0.9453,-0.9452,-0.945,-0.945,-0.945,-0.945,0,0,0,0,0,0,0,-0.9487,-0.9486,-0.948,-0.9478,-0.9477,-0.9475,-0.9473,-0.9471,-0.9464,-0.9468,-0.9468,-0.9467,-0.9457,-0.9456,-0.9455,-0.9452,-0.945,-0.945,-0.945,-0.945,-0.9451,-0.9451,0,0,0,0,0,0,-0.9488,-0.9486,-0.948,-0.9479,-0.9481,-0.9475,-0.9473,-0.9472,-0.9464,-0.9463,-0.9467,-0.9466,-0.9456,-0.9455,-0.9455,-0.9457,-0.945,-0.945,-0.945,-0.9451,-0.9451,-0.9451,0,0,0,0,0,0,-0.9488,-0.9488,-0.948,-0.9483,-0.9481,-0.9475,-0.9473,-0.9472,-0.9471,-0.9463,-0.9462,-0.9467,-0.9456,-0.9455,-0.9454,-0.9456,-0.945,-0.9449,-0.9451,-0.9451,-0.9451,-0.9461,0,0,0,0,0,0,-0.9489,-0.9488,-0.9489,-0.9483,-0.9481,-0.948,-0.9474,-0.9472,-0.947,-0.947,-0.9463,-0.9461,-0.9456,-0.9454,-0.9454,-0.9456,-0.9449,-0.945,-0.9451,-0.9451,-0.9461,-0.9462,-0.9463,0,0,0,0,0,-0.9489,-0.9491,-0.9489,-0.9488,-0.9482,-0.948,-0.9479,-0.9474,-0.9471,-0.9471,-0.9467,-0.9462,-0.9456,-0.9454,-0.9453,-0.9456,-0.945,-0.9451,-0.9451,-0.946,-0.9462,-0.9463,0,0,0,0,0,0,-0.9497,-0.949,-0.9488,-0.9488,-0.9485,-0.9479,-0.9479,-0.9475,-0.9472,-0.9472,-0.9464,-0.9463,-0.9462,-0.9459,-0.9457,-0.9458,-0.9453,-0.9453,-0.946,-0.9461,-0.9462,-0.9463,-0.9449,0,0,0,0,0,-0.9499,-0.9498,-0.9492,-0.9493,-0.9492,-0.9486,-0.9485,-0.9481,-0.9477,-0.9475,-0.947,-0.9466,-0.9464,-0.9462,-0.946,-0.946,-0.9459,-0.9461,-0.9463,-0.9463,-0.9464,-0.9464,-0.9466,-0.9453,-0.9453,-0.9453,0,0,-0.9502,-0.9499,-0.9498,-0.9495,-0.9492,-0.9491,-0.9485,-0.9484,-0.9483,-0.9475,-0.9474,-0.947,-0.9465,-0.9465,-0.9465,-0.9462,-0.9467,-0.9464,-0.9465,-0.9465,-0.9465,-0.9466,-0.9467,-0.9453,-0.9453,-0.9453,0,0,-0.9508,-0.9506,-0.9507,-0.9504,-0.95,-0.9496,-0.9497,-0.9491,-0.9489,-0.9488,-0.9482,-0.9481,-0.9477,-0.9474,-0.9472,-0.9478,-0.9473,-0.9477,-0.9483,-0.9484,-0.9485,-0.9486,-0.9488,-0.9489,-0.9478,-0.9478,-0.9478,0,-0.9513,-0.9512,-0.9507,-0.9507,-0.9506,-0.95,-0.95,-0.9498,-0.9493,-0.9492,-0.9489,-0.9485,-0.9481,-0.948,-0.9482,-0.948,-0.9481,-0.9478,-0.9485,-0.9486,-0.9487,-0.9489,-0.949,-0.9478,-0.9478,-0.9478,-0.9478,0,-0.9518,-0.9518,-0.9519,-0.9516,-0.9514,-0.9514,-0.9509,-0.9509,-0.9505,-0.9502,-0.9501,-0.9497,-0.9493,-0.9493,-0.9489,-0.9492,-0.9491,-0.9487,-0.9482,-0.9489,-0.9491,-0.9492,-0.9479,-0.9479,-0.9479,-0.9479,0,0,-0.9528,-0.9523,-0.9524,-0.9522,-0.9518,-0.9517,-0.9518,-0.9515,-0.9515,-0.9512,-0.9512,-0.9509,-0.9506,-0.9504,-0.9499,-0.95,-0.9506,-0.9496,-0.9496,-0.9498,-0.951,-0.9513,-0.9514,-0.9503,-0.9503,-0.9504,-0.951,0,-0.9533,-0.9534,-0.953,-0.9532,-0.9531,-0.9526,-0.9526,-0.9524,-0.9521,-0.952,-0.9516,-0.9515,-0.951,-0.9509,-0.9509,-0.9505,-0.9508,-0.9505,-0.9503,-0.9503,-0.9504,-0.9515,-0.9518,-0.9525,-0.9511,-0.9511,-0.9511,0,-0.954,-0.9538,-0.954,-0.9537,-0.9537,-0.9537,-0.9535,-0.9534,-0.9531,-0.9529,-0.9527,-0.9523,-0.9523,-0.9518,-0.9518,-0.9516,-0.9515,-0.9513,-0.9513,-0.9512,-0.9507,-0.9515,-0.9527,-0.9528,-0.9513,-0.9513,-0.9512,0,-0.9547,-0.9545,-0.9547,-0.9546,-0.9542,-0.9542,-0.9541,-0.9538,-0.9537,-0.9535,-0.9534,-0.9532,-0.9531,-0.9529,-0.9525,-0.9522,-0.9525,-0.952,-0.9523,-0.9523,-0.9524,-0.9524,-0.9536,-0.9523,-0.9523,-0.9523,-0.9523,0,-0.9553,-0.9554,-0.955,-0.9551,-0.9552,-0.9548,-0.9549,-0.9547,-0.9545,-0.9545,-0.954,-0.954,-0.9534,-0.9533,-0.9529,-0.953,-0.9529,-0.9527,-0.9526,-0.9528,-0.9528,-0.9527,-0.9526,-0.9524,-0.9524,-0.9524,-0.9523,0,-0.9561,-0.9558,-0.9559,-0.9556,-0.9555,-0.9557,-0.9554,-0.9554,-0.9552,-0.9552,-0.9551,-0.9547,-0.9546,-0.9541,-0.9539,-0.9537,-0.9539,-0.9536,-0.954,-0.9539,-0.9543,-0.9542,-0.9554,-0.9555,-0.9542,-0.9542,-0.9543,0,-0.9565,-0.9566,-0.9564,-0.9564,-0.9563,-0.9563,-0.9563,-0.9559,-0.9558,-0.9556,-0.9557,-0.9556,-0.9554,-0.9553,-0.9549,-0.9548,-0.9546,-0.955,-0.9545,-0.9547,-0.9546,-0.9546,-0.9546,-0.9551,-0.9551,-0.9551,-0.9551,0,-0.9573,-0.9572,-0.9572,-0.9572,-0.9571,-0.9571,-0.957,-0.957,-0.9566,-0.9565,-0.9565,-0.9564,-0.9563,-0.9562,-0.956,-0.9558,-0.9554,-0.9553,-0.9554,-0.9555,-0.9557,-0.9556,-0.9543,-0.9553,-0.9552,-0.9552,-0.9552,-0.9552,-0.9579,-0.958,-0.9579,-0.9579,-0.9579,-0.9578,-0.9579,-0.9577,-0.9577,-0.9576,-0.9573,-0.9573,-0.9571,-0.9568,-0.9567,-0.9567,-0.9564,-0.9565,-0.9565,-0.9566,-0.9566,-0.9557,-0.9566,-0.9566,-0.9566,-0.9566,-0.9566,0,-0.9587,-0.9586,-0.9587,-0.9586,-0.9586,-0.9584,-0.9583,-0.9583,-0.9584,-0.9582,-0.9582,-0.9582,-0.9581,-0.9578,-0.9577,-0.9578,-0.9576,-0.9578,-0.9577,-0.9577,-0.9568,-0.9568,-0.9579,-0.9579,-0.9579,-0.9579,-0.9579,-0.9579,-0.9591,-0.9593,-0.9592,-0.9593,-0.9593,-0.9593,-0.9593,-0.9593,-0.9592,-0.9592,-0.9592,-0.9591,-0.9589,-0.9588,-0.9587,-0.9586,-0.9586,-0.9588,-0.9587,-0.9579,-0.9578,-0.9576,-0.9576,-0.9588,-0.9589,-0.9596,-0.9596,-0.9596]}]]